Location: Newark
(60.6561°N, 46.5772°E)
Time: 10:27:45
(UTC+00:00)

Transit 4A - Visible Passes

Search period start: 14 October 2019 00:00
Search period end: 24 October 2019 00:00
Orbit: 866 x 978 km, 66.8° (Epoch: 13 October)

Date Brightness Start Highest point End Pass type
(mag) Time Alt. Az. Time Alt. Az. Time Alt. Az.
14 Oct 11.1 01:33:57 10° ESE 01:36:00 12° E 01:38:03 10° E visible
15 Oct 10.7 01:41:16 10° SE 01:44:54 16° ESE 01:48:30 10° ENE visible
16 Oct 10.5 01:49:20 10° SSE 01:53:53 21° ESE 01:58:22 10° ENE visible
17 Oct 10.1 01:57:46 10° S 02:02:56 27° ESE 02:08:02 10° ENE visible
18 Oct 9.6 02:06:25 10° S 02:12:01 35° ESE 02:17:33 10° ENE visible
19 Oct 10.7 00:33:29 10° SE 00:36:13 13° ESE 00:38:56 10° ENE visible
19 Oct 9.2 02:15:16 10° SSW 02:21:11 44° SE 02:27:00 10° NE visible
20 Oct 10.4 00:41:10 10° SE 00:45:10 18° ESE 00:49:06 10° ENE visible
20 Oct 8.7 02:24:16 10° SSW 02:30:24 55° SE 02:36:25 10° NE visible
21 Oct 10.0 00:49:22 10° SSE 00:54:09 23° ESE 00:58:52 10° ENE visible
21 Oct 8.3 02:33:25 10° SW 02:39:41 68° SE 02:45:48 10° NE visible
22 Oct 9.6 00:57:53 10° S 01:03:13 30° ESE 01:08:28 10° ENE visible
22 Oct 8.1 02:42:41 10° SW 02:49:00 82° SE 02:55:10 10° NE visible
22 Oct 10.6 23:26:27 10° ESE 23:27:34 10° E 23:28:41 10° E visible
23 Oct 9.2 01:06:37 10° S 01:12:21 38° ESE 01:17:58 10° NE visible
23 Oct 8.0 02:52:03 10° SW 02:58:23 85° NW 03:04:32 10° NE visible
23 Oct 10.4 23:33:12 10° SE 23:36:28 15° ESE 23:39:41 10° ENE visible
